Location: Santiago
(33.4378°S, 70.6505°W)
Time: 09:17:28
(UTC+00:00)

ISS - Visible Passes

Search period start: 16 September 2024 00:00
Search period end: 26 September 2024 00:00
Orbit: 414 x 424 km, 51.6° (Epoch: 16 September)

Date Brightness Start Highest point End Pass type
(mag) Time Alt. Az. Time Alt. Az. Time Alt. Az.
16 Sep -3.7 10:02:59 10° NW 10:06:24 73° SW 10:09:51 10° SE visible
17 Sep -3.2 09:17:33 30° NNW 09:19:01 57° NE 09:22:24 10° SE visible
18 Sep -1.6 08:32:44 26° ENE 08:32:44 26° ENE 08:34:56 10° ESE visible
18 Sep -2.2 10:05:52 10° W 10:08:43 23° SW 10:11:34 10° SSE visible
19 Sep -3.0 09:21:01 35° WSW 09:21:38 38° SW 09:24:54 10° SSE visible
20 Sep -1.9 08:36:22 30° SE 08:36:22 30° SE 08:38:18 10° SE visible
21 Sep -1.6 09:24:52 15° SW 09:25:28 15° SSW 09:27:36 10° S visible
22 Sep -1.3 08:40:28 17° S 08:40:28 17° S 08:41:49 10° SSE visible
